This is the latest recevied weather packets stored in our database for station/object OK1FET-4. If no packets are shown the sender has not sent any weather packets the latest 10 day(s).
| Time | Temp. | Humidity | Pressure | Rain* | Wind** | Luminosity | Snow |
|---|---|---|---|---|---|---|---|
| 1777491411 | 5.56° C | 37% | 1029.3 hPa | - | - | - | - |
| 1777491111 | 6.11° C | 37% | 1029.2 hPa | - | - | - | - |
| 1777490811 | 6.11° C | 36% | 1029.2 hPa | - | - | - | - |
| 1777490512 | 6.11° C | 36% | 1029.1 hPa | - | - | - | - |
| 1777490212 | 6.11° C | 36% | 1029.1 hPa | - | - | - | - |
| 1777489912 | 6.11° C | 36% | 1029.1 hPa | - | - | - | - |
| 1777489612 | 6.11° C | 35% | 1029 hPa | - | - | - | - |
| 1777489312 | 6.67° C | 34% | 1028.9 hPa | - | - | - | - |
| 1777489012 | 6.67° C | 34% | 1028.9 hPa | - | - | - | - |
| 1777488712 | 6.67° C | 34% | 1028.8 hPa | - | - | - | - |
| 1777488413 | 6.67° C | 34% | 1028.7 hPa | - | - | - | - |
| 1777488113 | 6.67° C | 33% | 1028.5 hPa | - | - | - | - |
| 1777487813 | 7.22° C | 33% | 1028.4 hPa | - | - | - | - |
| 1777487513 | 7.22° C | 33% | 1028.3 hPa | - | - | - | - |
| 1777487213 | 7.78° C | 33% | 1028.1 hPa | - | - | - | - |
| 1777486913 | 7.78° C | 33% | 1028 hPa | - | - | - | - |
| 1777486613 | 7.78° C | 32% | 1028.1 hPa | - | - | - | - |
| 1777486313 | 8.33° C | 32% | 1027.9 hPa | - | - | - | - |
| 1777486013 | 8.89° C | 32% | 1027.8 hPa | - | - | - | - |
| 1777485713 | 9.44° C | 31% | 1027.7 hPa | - | - | - | - |
| 1777485413 | 9.44° C | 31% | 1027.6 hPa | - | - | - | - |
| 1777485113 | 10° C | 30% | 1027.5 hPa | - | - | - | - |
| 1777484813 | 10.56° C | 30% | 1027.4 hPa | - | - | - | - |
| 1777484513 | 10.56° C | 30% | 1027.3 hPa | - | - | - | - |
| 1777484213 | 10.56° C | 30% | 1027.3 hPa | - | - | - | - |
* Rain since midnight (hover to see other rain measurements)
** Current wind speed in m/s (hover to see current wind gust speed)